Woodward, OK

3:26 PM CDT on March 29, 2017 (GMT -0500)
West Woodward

Weather History for KWWR - February, 2014

Change the Weather History Date:

Thursday, February 6, 2014

  Actual Average (KGAG) Record (KGAG)
Temperature  
Mean Temperature 8 °F -  
Max Temperature 12 °F 46 °F 75 °F (2009)
Min Temperature 5 °F 19 °F 3 °F (2014)
Degree Days  
Heating Degree Days 56    
Moisture  
Dew Point 2 °F    
Average Humidity 76    
Maximum Humidity 85    
Minimum Humidity 67    
Precipitation  
Precipitation 0.00 in - - ()
Sea Level Pressure  
Sea Level Pressure 30.47 in    
Wind  
Wind Speed 7 mph (ENE)    
Max Wind Speed 9 mph    
Max Gust Speed -    
Visibility 9 miles    
Events Snow    
Averages and records for this station are not official NWS values.
T = Trace of Precipitation, MM = Missing Value Source: NWS Daily Summary

Daily Weather History Graph

Daily Weather History Graph

Search for Another Location

Airport or City:

Trip Planner

Search our weather history database for the weather conditions in past years. The results will help you decide how hot, cold, wet, or windy it might be!

Date:

Astronomy

Feb. 06, 2014 Rise Set
Actual Time 7:35 AM CST 6:09 PM CST
Civil Twilight 7:08 AM CST 6:36 PM CST
Nautical Twilight 6:37 AM CST 7:07 PM CST
Astronomical Twilight 6:07 AM CST 7:37 PM CST
Moon 11:43 AM CST (2/6) 12:52 AM CST (2/6)
Length of Visible Light 11h 28m
Length of Day
10h 34m
Waxing Crescent, 49% of the Moon is Illuminated
Feb 6
Waxing Crescent
Feb 6
First Quarter
Feb 14
Full
Feb 22
Last Quarter
Mar 1
New

Hourly Weather History & Observations

Time (CST) Temp. Windchill Dew Point Humidity Pressure Visibility Wind Dir Wind Speed Gust Speed Precip Events Conditions
12:15 AM 6.8 °F -5.9 °F 3.2 °F 85% 30.59 in 3.0 mi North 8.1 mph - N/A Snow Light Snow
12:35 AM 6.8 °F -5.9 °F 3.2 °F 85% 30.59 in 3.0 mi North 8.1 mph - N/A Snow Light Snow
12:55 AM 6.8 °F -5.9 °F 3.2 °F 85% 30.59 in 7.0 mi NNE 8.1 mph - N/A Snow Light Snow
1:15 AM 6.8 °F -5.9 °F 1.4 °F 79% 30.59 in 7.0 mi North 8.1 mph - N/A Snow Light Snow
1:35 AM 6.8 °F -6.9 °F 1.4 °F 79% 30.58 in 10.0 mi North 9.2 mph - N/A Snow Light Snow
1:55 AM 6.8 °F -6.9 °F 1.4 °F 79% 30.58 in 7.0 mi North 9.2 mph - N/A Snow Light Snow
2:15 AM 6.8 °F -6.9 °F 1.4 °F 79% 30.58 in 5.0 mi North 9.2 mph - N/A Snow Light Snow
2:35 AM 6.8 °F - 1.4 °F 79% 30.57 in 3.0 mi Calm Calm - N/A Snow Light Snow
2:55 AM 6.8 °F - 1.4 °F 79% 30.57 in 4.0 mi Calm Calm - N/A Snow Light Snow
3:15 AM 6.8 °F -6.9 °F 1.4 °F 79% 30.57 in 7.0 mi North 9.2 mph - N/A Snow Light Snow
3:35 AM 6.8 °F -3.5 °F 1.4 °F 79% 30.57 in 3.0 mi North 5.8 mph - N/A Snow Light Snow
3:55 AM 5.0 °F -5.6 °F 1.4 °F 85% 30.57 in 3.0 mi North 5.8 mph - N/A Snow Light Snow
4:15 AM 5.0 °F -5.6 °F 1.4 °F 85% 30.56 in 7.0 mi North 5.8 mph - N/A Snow Light Snow
4:35 AM 5.0 °F -6.9 °F 1.4 °F 85% 30.56 in 10.0 mi NNE 6.9 mph - N/A Snow Light Snow
4:55 AM 5.0 °F -8.1 °F 1.4 °F 85% 30.56 in 7.0 mi NNE 8.1 mph - N/A Snow Light Snow
5:15 AM 5.0 °F -6.9 °F 1.4 °F 85% 30.55 in 7.0 mi NNE 6.9 mph - N/A Snow Light Snow
5:35 AM 5.0 °F -6.9 °F 1.4 °F 85% 30.55 in 7.0 mi NNE 6.9 mph - N/A Snow Light Snow
5:55 AM 5.0 °F -6.9 °F 1.4 °F 85% 30.55 in 10.0 mi NNE 6.9 mph - N/A Snow Light Snow
6:15 AM 5.0 °F -5.6 °F 1.4 °F 85% 30.55 in 10.0 mi NNE 5.8 mph - N/A Snow Light Snow
6:35 AM 5.0 °F -6.9 °F 1.4 °F 85% 30.54 in 10.0 mi NNE 6.9 mph - N/A Snow Light Snow
6:55 AM 5.0 °F -6.9 °F 1.4 °F 85% 30.54 in 10.0 mi NNE 6.9 mph - N/A Snow Light Snow
7:15 AM 5.0 °F -5.6 °F 1.4 °F 85% 30.54 in 10.0 mi NNE 5.8 mph - N/A Snow Light Snow
7:35 AM 5.0 °F -4.1 °F 1.4 °F 85% 30.55 in 10.0 mi NE 4.6 mph - N/A Snow Light Snow
7:55 AM 5.0 °F -5.6 °F 1.4 °F 85% 30.55 in 10.0 mi NE 5.8 mph - N/A Snow Light Snow
8:15 AM 5.0 °F -5.6 °F 1.4 °F 85% 30.55 in 10.0 mi NE 5.8 mph - N/A Snow Light Snow
8:35 AM 6.8 °F -5.9 °F 1.4 °F 79% 30.54 in 10.0 mi NE 8.1 mph - N/A Snow Light Snow
8:55 AM 6.8 °F -6.9 °F 1.4 °F 79% 30.54 in 10.0 mi NE 9.2 mph - N/A Snow Light Snow
9:15 AM 6.8 °F -5.9 °F 1.4 °F 79% 30.55 in 10.0 mi ENE 8.1 mph - N/A   Overcast
9:35 AM 8.6 °F -4.7 °F 1.4 °F 73% 30.55 in 10.0 mi NE 9.2 mph - N/A   Overcast
9:55 AM 8.6 °F -3.7 °F 1.4 °F 73% 30.55 in 10.0 mi East 8.1 mph - N/A   Overcast
10:15 AM 8.6 °F -2.6 °F 1.4 °F 73% 30.56 in 10.0 mi NE 6.9 mph - N/A   Overcast
10:35 AM 8.6 °F -3.7 °F 1.4 °F 73% 30.55 in 10.0 mi East 8.1 mph - N/A Snow Light Snow
10:55 AM 8.6 °F -2.6 °F 1.4 °F 73% 30.55 in 10.0 mi ENE 6.9 mph - N/A Snow Light Snow
11:15 AM 8.6 °F -3.7 °F 1.4 °F 73% 30.55 in 10.0 mi ENE 8.1 mph - N/A Snow Light Snow
11:35 AM 10.4 °F -0.4 °F 1.4 °F 67% 30.54 in 10.0 mi NE 6.9 mph - N/A Snow Light Snow
11:55 AM 10.4 °F 0.8 °F 1.4 °F 67% 30.53 in 7.0 mi ENE 5.8 mph - N/A Snow Light Snow
12:15 PM 10.4 °F 0.8 °F 3.2 °F 73% 30.50 in 5.0 mi ENE 5.8 mph - N/A Snow Light Snow
12:35 PM 10.4 °F 0.8 °F 3.2 °F 73% 30.50 in 10.0 mi NE 5.8 mph - N/A Snow Light Snow
12:55 PM 10.4 °F 2.2 °F 3.2 °F 73% 30.48 in 10.0 mi East 4.6 mph - N/A Snow Light Snow
1:15 PM 10.4 °F 4.0 °F 3.2 °F 73% 30.47 in 10.0 mi NE 3.5 mph - N/A Snow Light Snow
1:35 PM 10.4 °F 2.2 °F 3.2 °F 73% 30.45 in 10.0 mi ENE 4.6 mph - N/A Snow Light Snow
1:55 PM 12.2 °F 2.9 °F 3.2 °F 67% 30.43 in 10.0 mi ENE 5.8 mph - N/A   Overcast
2:15 PM 12.2 °F 1.7 °F 3.2 °F 67% 30.42 in 10.0 mi ENE 6.9 mph - N/A   Overcast
2:35 PM 12.2 °F 1.7 °F 3.2 °F 67% 30.41 in 10.0 mi ENE 6.9 mph - N/A   Overcast
2:55 PM 12.2 °F 1.7 °F 3.2 °F 67% 30.40 in 10.0 mi ENE 6.9 mph - N/A   Overcast
3:15 PM 12.2 °F 1.7 °F 3.2 °F 67% 30.40 in 10.0 mi ENE 6.9 mph - N/A   Overcast
3:35 PM 12.2 °F 0.7 °F 3.2 °F 67% 30.40 in 10.0 mi SE 8.1 mph - N/A   Overcast
3:55 PM 12.2 °F 4.3 °F 3.2 °F 67% 30.40 in 10.0 mi East 4.6 mph - N/A   Overcast
4:15 PM 12.2 °F 2.9 °F 3.2 °F 67% 30.40 in 10.0 mi East 5.8 mph - N/A   Overcast
4:35 PM 12.2 °F 1.7 °F 3.2 °F 67% 30.39 in 10.0 mi East 6.9 mph - N/A   Overcast
4:55 PM 10.4 °F -0.4 °F 3.2 °F 73% 30.39 in 10.0 mi East 6.9 mph - N/A   Overcast
5:15 PM 10.4 °F 0.8 °F 3.2 °F 73% 30.39 in 10.0 mi East 5.8 mph - N/A   Overcast
5:35 PM 10.4 °F -1.5 °F 3.2 °F 73% 30.38 in 10.0 mi East 8.1 mph - N/A   Overcast
5:55 PM 10.4 °F 0.8 °F 3.2 °F 73% 30.38 in 10.0 mi East 5.8 mph - N/A   Overcast
6:15 PM 10.4 °F -0.4 °F 3.2 °F 73% 30.38 in 10.0 mi East 6.9 mph - N/A   Overcast
6:35 PM 10.4 °F -0.4 °F 3.2 °F 73% 30.38 in 10.0 mi East 6.9 mph - N/A   Overcast
6:55 PM 10.4 °F -0.4 °F 3.2 °F 73% 30.39 in 10.0 mi East 6.9 mph - N/A   Overcast
7:15 PM 10.4 °F 0.8 °F 3.2 °F 73% 30.38 in 10.0 mi East 5.8 mph - N/A   Overcast
7:35 PM 10.4 °F 0.8 °F 3.2 °F 73% 30.38 in 10.0 mi East 5.8 mph - N/A   Overcast
7:55 PM 10.4 °F 0.8 °F 3.2 °F 73% 30.39 in 10.0 mi East 5.8 mph - N/A   Overcast
8:15 PM 10.4 °F 0.8 °F 3.2 °F 73% 30.38 in 10.0 mi East 5.8 mph - N/A   Overcast
8:35 PM 10.4 °F -0.4 °F 3.2 °F 73% 30.37 in 10.0 mi East 6.9 mph - N/A   Overcast
8:55 PM 10.4 °F -0.4 °F 3.2 °F 73% 30.36 in 10.0 mi East 6.9 mph - N/A   Overcast
9:15 PM 10.4 °F -0.4 °F 3.2 °F 73% 30.35 in 10.0 mi East 6.9 mph - N/A   Overcast
9:35 PM 10.4 °F -0.4 °F 3.2 °F 73% 30.35 in 10.0 mi East 6.9 mph - N/A   Overcast
9:55 PM 8.6 °F -2.6 °F 3.2 °F 79% 30.35 in 10.0 mi East 6.9 mph - N/A   Overcast
10:15 PM 10.4 °F -1.5 °F 3.2 °F 73% 30.35 in 10.0 mi East 8.1 mph - N/A   Overcast
10:35 PM 10.4 °F -0.4 °F 5.0 °F 79% 30.34 in 10.0 mi East 6.9 mph - N/A   Overcast
10:55 PM 10.4 °F -2.4 °F 5.0 °F 79% 30.33 in 10.0 mi ESE 9.2 mph - N/A   Overcast
11:15 PM 10.4 °F -2.4 °F 5.0 °F 79% 30.33 in 10.0 mi ESE 9.2 mph - N/A   Overcast
11:35 PM 10.4 °F -1.5 °F 5.0 °F 79% 30.32 in 10.0 mi ESE 8.1 mph - N/A   Overcast
11:55 PM 8.6 °F -3.7 °F 5.0 °F 85% 30.32 in 10.0 mi ESE 8.1 mph - N/A   Overcast